Time,TemperatureF,DewpointF,PressureIn,WindDirection,WindDirectionDegrees,WindSpeedMPH,WindSpeedGustMPH,Humidity,HourlyPrecipIn,Conditions,Clouds,dailyrainin,SoftwareType,DateUTC
2013-04-30 00:01:00,73.0,46.0,29.76,WNW,300,14.0,17.0,38,-99.99,,,-99.99,,2013-04-30 07:01:00,
2013-04-30 00:11:00,73.0,46.0,29.76,WNW,300,14.0,17.0,38,-99.99,,,-99.99,,2013-04-30 07:11:00,
2013-04-30 00:21:00,73.0,45.0,29.77,NW,310,13.0,-999.0,35,-99.99,,,-99.99,,2013-04-30 07:21:00,
2013-04-30 00:31:00,72.0,45.0,29.77,NW,310,14.0,-999.0,37,-99.99,,,-99.99,,2013-04-30 07:31:00,
2013-04-30 00:42:00,72.0,45.0,29.77,NW,310,14.0,-999.0,37,-99.99,,,-99.99,,2013-04-30 07:42:00,
2013-04-30 00:52:00,73.0,43.0,29.77,NW,310,13.0,17.0,33,-99.99,,,-99.99,,2013-04-30 07:52:00,
2013-04-30 01:02:00,73.0,43.0,29.77,NW,310,13.0,17.0,33,-99.99,,,-99.99,,2013-04-30 08:02:00,
2013-04-30 01:11:00,73.0,43.0,29.77,NW,310,13.0,17.0,33,-99.99,,,-99.99,,2013-04-30 08:11:00,
2013-04-30 01:21:00,73.0,43.0,29.77,NW,320,21.0,22.0,33,-99.99,,,-99.99,,2013-04-30 08:21:00,
2013-04-30 01:31:00,73.0,43.0,29.77,NW,310,14.0,22.0,33,-99.99,,,-99.99,,2013-04-30 08:31:00,
2013-04-30 01:42:00,73.0,43.0,29.77,NW,310,14.0,22.0,33,-99.99,,,-99.99,,2013-04-30 08:42:00,
2013-04-30 01:52:00,73.0,43.0,29.77,WNW,300,16.0,22.0,33,-99.99,,,-99.99,,2013-04-30 08:52:00,
2013-04-30 02:01:00,73.0,43.0,29.77,WNW,300,16.0,22.0,33,-99.99,,,-99.99,,2013-04-30 09:01:00,
2013-04-30 02:11:00,73.0,43.0,29.77,WNW,300,16.0,22.0,33,-99.99,,,-99.99,,2013-04-30 09:11:00,
2013-04-30 02:21:00,72.0,41.0,29.77,WNW,300,12.0,22.0,33,-99.99,,,-99.99,,2013-04-30 09:21:00,
2013-04-30 02:32:00,72.0,39.0,29.77,NW,320,15.0,22.0,30,-99.99,,,-99.99,,2013-04-30 09:32:00,
2013-04-30 02:43:00,72.0,39.0,29.77,NW,320,15.0,22.0,30,-99.99,,,-99.99,,2013-04-30 09:43:00,
2013-04-30 02:52:00,72.0,39.0,29.77,NW,320,16.0,22.0,30,-99.99,,,-99.99,,2013-04-30 09:52:00,
2013-04-30 03:02:00,72.0,39.0,29.77,NW,320,16.0,22.0,30,-99.99,,,-99.99,,2013-04-30 10:02:00,
2013-04-30 03:11:00,72.0,39.0,29.77,NW,320,16.0,22.0,30,-99.99,,,-99.99,,2013-04-30 10:11:00,
2013-04-30 03:22:00,70.0,39.0,29.77,NW,310,15.0,23.0,32,-99.99,,,-99.99,,2013-04-30 10:22:00,
2013-04-30 03:32:00,70.0,39.0,29.77,NW,320,24.0,24.0,32,-99.99,,,-99.99,,2013-04-30 10:32:00,
2013-04-30 03:41:00,70.0,39.0,29.77,NW,320,24.0,24.0,32,-99.99,,,-99.99,,2013-04-30 10:41:00,
2013-04-30 03:52:00,70.0,39.0,29.77,NW,320,20.0,25.0,32,-99.99,,,-99.99,,2013-04-30 10:52:00,
2013-04-30 04:01:00,70.0,39.0,29.77,NW,320,20.0,25.0,32,-99.99,,,-99.99,,2013-04-30 11:01:00,
2013-04-30 04:11:00,70.0,39.0,29.77,NW,320,20.0,25.0,32,-99.99,,,-99.99,,2013-04-30 11:11:00,
2013-04-30 04:21:00,70.0,39.0,29.78,NW,320,14.0,23.0,32,-99.99,,,-99.99,,2013-04-30 11:21:00,
2013-04-30 04:31:00,70.0,39.0,29.78,NW,310,14.0,18.0,32,-99.99,,,-99.99,,2013-04-30 11:31:00,
2013-04-30 04:42:00,70.0,39.0,29.78,NW,310,14.0,18.0,32,-99.99,,,-99.99,,2013-04-30 11:42:00,
2013-04-30 04:51:00,68.0,39.0,29.78,NNW,330,12.0,21.0,34,-99.99,,,-99.99,,2013-04-30 11:51:00,
2013-04-30 05:01:00,68.0,39.0,29.78,NNW,330,12.0,21.0,34,-99.99,,,-99.99,,2013-04-30 12:01:00,
2013-04-30 05:11:00,68.0,39.0,29.78,NNW,330,12.0,21.0,34,-99.99,,,-99.99,,2013-04-30 12:11:00,
2013-04-30 05:21:00,70.0,37.0,29.78,NW,310,14.0,22.0,30,-99.99,,,-99.99,,2013-04-30 12:21:00,
2013-04-30 05:31:00,68.0,37.0,29.79,NW,310,15.0,22.0,32,-99.99,,,-99.99,,2013-04-30 12:31:00,
2013-04-30 05:41:00,68.0,37.0,29.79,NW,310,15.0,22.0,32,-99.99,,,-99.99,,2013-04-30 12:41:00,
2013-04-30 05:51:00,68.0,36.0,29.79,NW,320,15.0,28.0,30,-99.99,,,-99.99,,2013-04-30 12:51:00,
2013-04-30 06:01:00,68.0,36.0,29.79,NW,320,15.0,28.0,30,-99.99,,,-99.99,,2013-04-30 13:01:00,
2013-04-30 06:11:00,68.0,36.0,29.79,NW,320,15.0,28.0,30,-99.99,,,-99.99,,2013-04-30 13:11:00,
2013-04-30 06:21:00,66.0,36.0,29.80,NW,320,18.0,23.0,32,-99.99,,,-99.99,,2013-04-30 13:21:00,
2013-04-30 06:31:00,66.0,36.0,29.81,NNW,330,13.0,-999.0,32,-99.99,,,-99.99,,2013-04-30 13:31:00,
2013-04-30 06:41:00,66.0,36.0,29.81,NNW,330,13.0,-999.0,32,-99.99,,,-99.99,,2013-04-30 13:41:00,
2013-04-30 06:52:00,64.0,36.0,29.81,NW,320,14.0,-999.0,34,-99.99,,,-99.99,,2013-04-30 13:52:00,
2013-04-30 07:01:00,64.0,36.0,29.81,NW,320,14.0,-999.0,34,-99.99,,,-99.99,,2013-04-30 14:01:00,
2013-04-30 07:11:00,64.0,36.0,29.81,NW,320,14.0,-999.0,34,-99.99,,,-99.99,,2013-04-30 14:11:00,
2013-04-30 07:21:00,66.0,32.0,29.82,NW,320,12.0,-999.0,27,-99.99,,,-99.99,,2013-04-30 14:21:00,
2013-04-30 07:31:00,66.0,32.0,29.82,NW,320,13.0,-999.0,27,-99.99,,,-99.99,,2013-04-30 14:31:00,
2013-04-30 07:41:00,66.0,32.0,29.82,NW,320,13.0,-999.0,27,-99.99,,,-99.99,,2013-04-30 14:41:00,
2013-04-30 07:52:00,66.0,32.0,29.82,NW,310,17.0,21.0,27,-99.99,,,-99.99,,2013-04-30 14:52:00,
2013-04-30 08:01:00,66.0,32.0,29.82,NW,310,17.0,21.0,27,-99.99,,,-99.99,,2013-04-30 15:01:00,
2013-04-30 08:11:00,66.0,32.0,29.82,NW,310,17.0,21.0,27,-99.99,,,-99.99,,2013-04-30 15:11:00,
2013-04-30 08:21:00,70.0,30.0,29.83,NW,320,16.0,23.0,22,-99.99,,,-99.99,,2013-04-30 15:21:00,
2013-04-30 08:32:00,70.0,30.0,29.83,NNW,330,15.0,23.0,22,-99.99,,,-99.99,,2013-04-30 15:32:00,
2013-04-30 08:42:00,70.0,30.0,29.83,NNW,330,15.0,23.0,22,-99.99,,,-99.99,,2013-04-30 15:42:00,
2013-04-30 08:52:00,70.0,28.0,29.83,NW,320,17.0,29.0,21,-99.99,,,-99.99,,2013-04-30 15:52:00,
2013-04-30 09:02:00,70.0,28.0,29.83,NW,320,17.0,29.0,21,-99.99,,,-99.99,,2013-04-30 16:02:00,
2013-04-30 09:12:00,70.0,28.0,29.83,NW,320,17.0,29.0,21,-99.99,,,-99.99,,2013-04-30 16:12:00,
2013-04-30 09:22:00,72.0,25.0,29.83,NNW,340,20.0,32.0,17,-99.99,,,-99.99,,2013-04-30 16:22:00,
2013-04-30 09:32:00,72.0,25.0,29.83,NNW,340,20.0,32.0,17,-99.99,,,-99.99,,2013-04-30 16:32:00,
2013-04-30 09:42:00,72.0,25.0,29.83,NNW,340,20.0,32.0,17,-99.99,,,-99.99,,2013-04-30 16:42:00,
2013-04-30 09:52:00,72.0,25.0,29.83,NNW,340,20.0,32.0,17,-99.99,,,-99.99,,2013-04-30 16:52:00,
2013-04-30 10:02:00,72.0,25.0,29.83,NNW,340,20.0,32.0,17,-99.99,,,-99.99,,2013-04-30 17:02:00,
2013-04-30 10:22:00,73.0,23.0,29.83,NW,320,30.0,44.0,15,-99.99,,,-99.99,,2013-04-30 17:22:00,
2013-04-30 10:32:00,73.0,23.0,29.84,NW,320,28.0,40.0,15,-99.99,,,-99.99,,2013-04-30 17:32:00,
2013-04-30 10:42:00,73.0,23.0,29.84,NW,320,28.0,40.0,15,-99.99,,,-99.99,,2013-04-30 17:42:00,
2013-04-30 10:52:00,73.0,23.0,29.84,NNW,330,28.0,41.0,15,-99.99,,,-99.99,,2013-04-30 17:52:00,
2013-04-30 11:01:00,73.0,23.0,29.84,NNW,330,28.0,41.0,15,-99.99,,,-99.99,,2013-04-30 18:01:00,
2013-04-30 11:11:00,73.0,23.0,29.84,NNW,330,28.0,41.0,15,-99.99,,,-99.99,,2013-04-30 18:11:00,
2013-04-30 11:21:00,75.0,23.0,29.85,NNW,330,33.0,37.0,14,-99.99,,,-99.99,,2013-04-30 18:21:00,
2013-04-30 11:22:00,75.0,23.0,29.85,NW,320,31.0,39.0,14,-99.99,,,-99.99,,2013-04-30 18:22:00,
2013-04-30 11:32:00,75.0,23.0,29.85,NNW,330,33.0,37.0,14,-99.99,,,-99.99,,2013-04-30 18:32:00,
2013-04-30 11:42:00,75.0,23.0,29.85,NNW,330,33.0,37.0,14,-99.99,,,-99.99,,2013-04-30 18:42:00,
2013-04-30 11:52:00,75.0,23.0,29.85,NNW,330,33.0,37.0,14,-99.99,,,-99.99,,2013-04-30 18:52:00,
2013-04-30 12:01:00,75.0,23.0,29.85,NNW,330,33.0,37.0,14,-99.99,,,-99.99,,2013-04-30 19:01:00,
2013-04-30 12:11:00,75.0,23.0,29.85,NNW,330,33.0,37.0,14,-99.99,,,-99.99,,2013-04-30 19:11:00,
2013-04-30 12:21:00,79.0,23.0,29.84,NW,320,21.0,36.0,12,-99.99,,,-99.99,,2013-04-30 19:21:00,
2013-04-30 12:32:00,79.0,23.0,29.84,NW,320,21.0,36.0,12,-99.99,,,-99.99,,2013-04-30 19:32:00,
2013-04-30 12:42:00,79.0,23.0,29.84,NW,320,21.0,36.0,12,-99.99,,,-99.99,,2013-04-30 19:42:00,
2013-04-30 12:52:00,79.0,23.0,29.84,NW,320,21.0,36.0,12,-99.99,,,-99.99,,2013-04-30 19:52:00,
2013-04-30 13:02:00,79.0,23.0,29.84,NW,320,21.0,36.0,12,-99.99,,,-99.99,,2013-04-30 20:02:00,
2013-04-30 13:11:00,79.0,23.0,29.84,NW,320,21.0,36.0,12,-99.99,,,-99.99,,2013-04-30 20:11:00,
2013-04-30 13:32:00,81.0,23.0,29.83,NNW,330,21.0,38.0,11,-99.99,,,-99.99,,2013-04-30 20:32:00,
2013-04-30 13:42:00,81.0,23.0,29.83,NNW,330,21.0,38.0,11,-99.99,,,-99.99,,2013-04-30 20:42:00,
2013-04-30 13:52:00,81.0,23.0,29.83,NNW,330,21.0,38.0,11,-99.99,,,-99.99,,2013-04-30 20:52:00,
2013-04-30 14:01:00,81.0,23.0,29.83,NNW,330,21.0,38.0,11,-99.99,,,-99.99,,2013-04-30 21:01:00,
2013-04-30 14:11:00,81.0,23.0,29.83,NNW,330,21.0,38.0,11,-99.99,,,-99.99,,2013-04-30 21:11:00,
2013-04-30 14:21:00,82.0,28.0,29.83,NW,310,29.0,32.0,13,-99.99,,,-99.99,,2013-04-30 21:21:00,
2013-04-30 14:32:00,82.0,28.0,29.83,NW,310,29.0,32.0,13,-99.99,,,-99.99,,2013-04-30 21:32:00,
2013-04-30 14:42:00,82.0,28.0,29.83,NW,310,29.0,32.0,13,-99.99,,,-99.99,,2013-04-30 21:42:00,
2013-04-30 14:53:00,82.0,23.0,29.83,NW,310,23.0,33.0,11,-99.99,,,-99.99,,2013-04-30 21:53:00,
2013-04-30 15:02:00,82.0,23.0,29.83,NW,310,23.0,33.0,11,-99.99,,,-99.99,,2013-04-30 22:02:00,
2013-04-30 15:12:00,82.0,23.0,29.83,NW,310,23.0,33.0,11,-99.99,,,-99.99,,2013-04-30 22:12:00,
2013-04-30 15:22:00,82.0,21.0,29.82,NNW,330,29.0,38.0,10,-99.99,,,-99.99,,2013-04-30 22:22:00,
2013-04-30 15:32:00,82.0,23.0,29.82,NNW,330,18.0,36.0,11,-99.99,,,-99.99,,2013-04-30 22:32:00,
2013-04-30 15:42:00,82.0,23.0,29.82,NNW,330,18.0,36.0,11,-99.99,,,-99.99,,2013-04-30 22:42:00,
2013-04-30 15:53:00,82.0,23.0,29.82,NNW,330,18.0,36.0,11,-99.99,,,-99.99,,2013-04-30 22:53:00,
2013-04-30 16:02:00,82.0,23.0,29.82,NNW,330,18.0,36.0,11,-99.99,,,-99.99,,2013-04-30 23:02:00,
2013-04-30 16:11:00,82.0,23.0,29.82,NNW,330,18.0,36.0,11,-99.99,,,-99.99,,2013-04-30 23:11:00,
2013-04-30 16:21:00,82.0,21.0,29.81,NNW,330,16.0,38.0,10,-99.99,,,-99.99,,2013-04-30 23:21:00,
2013-04-30 16:32:00,81.0,25.0,29.81,NW,320,28.0,33.0,12,-99.99,,,-99.99,,2013-04-30 23:32:00,
2013-04-30 16:42:00,81.0,25.0,29.81,NW,320,28.0,33.0,12,-99.99,,,-99.99,,2013-04-30 23:42:00,
2013-04-30 16:52:00,81.0,25.0,29.81,NW,320,28.0,33.0,12,-99.99,,,-99.99,,2013-04-30 23:52:00,
2013-04-30 17:01:00,81.0,25.0,29.81,NW,320,28.0,33.0,12,-99.99,,,-99.99,,2013-05-01 00:01:00,
2013-04-30 17:11:00,81.0,25.0,29.81,NW,320,28.0,33.0,12,-99.99,,,-99.99,,2013-05-01 00:11:00,
2013-04-30 17:21:00,82.0,23.0,29.80,WNW,300,18.0,39.0,11,-99.99,,,-99.99,,2013-05-01 00:21:00,
2013-04-30 17:32:00,82.0,21.0,29.80,NW,310,29.0,43.0,10,-99.99,,,-99.99,,2013-05-01 00:32:00,
2013-04-30 17:42:00,82.0,21.0,29.80,NW,310,29.0,43.0,10,-99.99,,,-99.99,,2013-05-01 00:42:00,
2013-04-30 17:52:00,82.0,21.0,29.80,NW,310,29.0,43.0,10,-99.99,,,-99.99,,2013-05-01 00:52:00,
2013-04-30 18:01:00,82.0,21.0,29.80,NW,310,29.0,43.0,10,-99.99,,,-99.99,,2013-05-01 01:01:00,
2013-04-30 18:11:00,82.0,21.0,29.80,NW,310,29.0,43.0,10,-99.99,,,-99.99,,2013-05-01 01:11:00,
2013-04-30 18:21:00,81.0,23.0,29.82,NW,310,28.0,35.0,11,-99.99,,,-99.99,,2013-05-01 01:21:00,
2013-04-30 18:32:00,81.0,27.0,29.82,NW,310,23.0,32.0,13,-99.99,,,-99.99,,2013-05-01 01:32:00,
2013-04-30 18:42:00,81.0,27.0,29.82,NW,310,23.0,32.0,13,-99.99,,,-99.99,,2013-05-01 01:42:00,
2013-04-30 18:52:00,81.0,27.0,29.82,NW,310,23.0,32.0,13,-99.99,,,-99.99,,2013-05-01 01:52:00,
2013-04-30 19:01:00,81.0,27.0,29.82,NW,310,23.0,32.0,13,-99.99,,,-99.99,,2013-05-01 02:01:00,
2013-04-30 19:21:00,79.0,21.0,29.83,WNW,300,21.0,36.0,11,-99.99,,,-99.99,,2013-05-01 02:21:00,
2013-04-30 19:32:00,79.0,21.0,29.82,NW,320,17.0,33.0,11,-99.99,,,-99.99,,2013-05-01 02:32:00,
2013-04-30 19:42:00,79.0,21.0,29.82,NW,320,17.0,33.0,11,-99.99,,,-99.99,,2013-05-01 02:42:00,
2013-04-30 19:52:00,79.0,21.0,29.82,NW,320,17.0,33.0,11,-99.99,,,-99.99,,2013-05-01 02:52:00,
2013-04-30 20:01:00,79.0,21.0,29.82,NW,320,17.0,33.0,11,-99.99,,,-99.99,,2013-05-01 03:01:00,
2013-04-30 20:11:00,79.0,21.0,29.82,NW,320,17.0,33.0,11,-99.99,,,-99.99,,2013-05-01 03:11:00,
2013-04-30 20:21:00,75.0,21.0,29.82,NW,310,22.0,38.0,13,-99.99,,,-99.99,,2013-05-01 03:21:00,
2013-04-30 20:33:00,75.0,19.0,29.82,NW,310,24.0,36.0,12,-99.99,,,-99.99,,2013-05-01 03:33:00,
2013-04-30 20:43:00,75.0,19.0,29.82,NW,310,24.0,36.0,12,-99.99,,,-99.99,,2013-05-01 03:43:00,
2013-04-30 20:53:00,75.0,19.0,29.82,NW,310,24.0,36.0,12,-99.99,,,-99.99,,2013-05-01 03:53:00,
2013-04-30 21:02:00,75.0,19.0,29.82,NW,310,24.0,36.0,12,-99.99,,,-99.99,,2013-05-01 04:02:00,
2013-04-30 21:12:00,75.0,19.0,29.82,NW,310,24.0,36.0,12,-99.99,,,-99.99,,2013-05-01 04:12:00,
2013-04-30 21:22:00,75.0,21.0,29.83,NW,310,27.0,38.0,13,-99.99,,,-99.99,,2013-05-01 04:22:00,
2013-04-30 21:32:00,73.0,21.0,29.83,NW,310,33.0,39.0,13,-99.99,,,-99.99,,2013-05-01 04:32:00,
2013-04-30 21:43:00,73.0,21.0,29.83,NW,310,33.0,39.0,13,-99.99,,,-99.99,,2013-05-01 04:43:00,
2013-04-30 21:52:00,73.0,21.0,29.83,NW,310,33.0,39.0,13,-99.99,,,-99.99,,2013-05-01 04:52:00,
2013-04-30 22:02:00,73.0,21.0,29.83,NW,310,33.0,39.0,13,-99.99,,,-99.99,,2013-05-01 05:02:00,
2013-04-30 22:11:00,73.0,21.0,29.83,NW,310,33.0,39.0,13,-99.99,,,-99.99,,2013-05-01 05:11:00,
2013-04-30 22:21:00,73.0,21.0,29.85,NW,320,22.0,39.0,13,-99.99,,,-99.99,,2013-05-01 05:21:00,
2013-04-30 22:32:00,73.0,21.0,29.85,NNW,330,28.0,40.0,13,-99.99,,,-99.99,,2013-05-01 05:32:00,
2013-04-30 22:42:00,73.0,21.0,29.85,NNW,330,28.0,40.0,13,-99.99,,,-99.99,,2013-05-01 05:42:00,
2013-04-30 22:52:00,73.0,21.0,29.85,NNW,330,28.0,40.0,13,-99.99,,,-99.99,,2013-05-01 05:52:00,
2013-04-30 23:01:00,73.0,21.0,29.85,NNW,330,28.0,40.0,13,-99.99,,,-99.99,,2013-05-01 06:01:00,
2013-04-30 23:11:00,73.0,21.0,29.85,NNW,330,28.0,40.0,13,-99.99,,,-99.99,,2013-05-01 06:11:00,
2013-04-30 23:21:00,72.0,23.0,29.87,NW,320,31.0,39.0,15,-99.99,,,-99.99,,2013-05-01 06:21:00,
2013-04-30 23:32:00,70.0,23.0,29.88,NW,320,23.0,35.0,16,-99.99,,,-99.99,,2013-05-01 06:32:00,